Total_Precipitation_Accumulation
1.72 1.32 0.82 0.44 0.36 0.33 0.27 0.35 0.49 0.54 0.54 0.55 0.58 0.46 0.42 0.36 0.32 0.32 0.31 0.33 0.42 0.54 0.65 0.78 0.93 1.09 1.21 1.18 1.21 1.29 1.34 1.41 1.48 1.47 1.35 1.23 1.11 1.02 0.91 0.76 0.69 0.58 0.49 0.45
1.46 0.94 0.43 0.29 0.31 0.31 0.29 0.31 0.41 0.47 0.47 0.54 0.54 0.46 0.40 0.40 0.35 0.30 0.28 0.29 0.38 0.48 0.57 0.66 0.80 0.95 1.10 1.19 1.19 1.28 1.35 1.39 1.40 1.41 1.44 1.39 1.41 1.31 1.18 1.03 0.92 0.81 0.71 0.65
1.13 0.63 0.36 0.38 0.41 0.34 0.27 0.28 0.34 0.39 0.44 0.53 0.54 0.51 0.38 0.34 0.33 0.27 0.24 0.26 0.32 0.41 0.47 0.57 0.68 0.76 0.86 1.04 1.20 1.25 1.31 1.36 1.40 1.58 1.87 1.81 1.67 1.54 1.39 1.23 1.11 1.02 0.96 0.90
1.03 0.58 0.43 0.44 0.38 0.32 0.29 0.21 0.27 0.35 0.47 0.54 0.54 0.66 0.41 0.36 0.35 0.27 0.23 0.25 0.31 0.36 0.41 0.49 0.60 0.65 0.70 0.82 1.03 1.28 1.36 1.45 1.57 1.76 1.91 1.91 1.65 1.43 1.32 1.28 1.28 1.23 1.11 1.06
0.98 0.66 0.52 0.49 0.37 0.32 0.31 0.22 0.28 0.34 0.41 0.48 0.40 0.48 0.43 0.35 0.35 0.32 0.27 0.27 0.30 0.33 0.38 0.43 0.52 0.58 0.61 0.69 0.83 1.08 1.30 1.39 1.58 1.73 1.80 1.88 1.68 1.40 1.33 1.31 1.25 1.21 1.12 1.03
0.67 0.56 0.59 0.50 0.35 0.34 0.34 0.31 0.36 0.42 0.46 0.46 0.31 0.36 0.42 0.34 0.33 0.34 0.31 0.32 0.34 0.33 0.34 0.36 0.39 0.43 0.50 0.57 0.65 0.80 0.98 1.07 1.22 1.39 1.55 1.67 1.66 1.52 1.38 1.27 1.18 1.11 1.06 1.01
0.82 0.66 0.53 0.46 0.43 0.38 0.37 0.46 0.63 0.71 0.61 0.40 0.24 0.26 0.37 0.30 0.27 0.29 0.31 0.32 0.30 0.29 0.29 0.33 0.36 0.36 0.40 0.44 0.49 0.59 0.69 0.77 0.88 0.99 1.15 1.31 1.42 1.44 1.35 1.25 1.14 1.03 0.92 0.86
0.79 0.90 0.53 0.42 0.40 0.37 0.30 0.36 0.46 0.46 0.30 0.23 0.16 0.22 0.32 0.29 0.29 0.29 0.30 0.27 0.26 0.26 0.28 0.35 0.38 0.36 0.35 0.37 0.39 0.43 0.52 0.62 0.66 0.74 0.87 0.99 1.04 1.06 1.03 1.01 0.94 0.89 0.81 0.77
0.41 0.55 0.37 0.27 0.21 0.22 0.28 0.25 0.20 0.35 0.25 0.17 0.17 0.20 0.27 0.29 0.29 0.29 0.30 0.27 0.24 0.22 0.27 0.33 0.33 0.31 0.27 0.27 0.30 0.32 0.37 0.44 0.48 0.55 0.64 0.69 0.75 0.76 0.78 0.77 0.71 0.67 0.67 0.67
0.20 0.33 0.29 0.22 0.19 0.17 0.16 0.13 0.18 0.38 0.33 0.20 0.14 0.15 0.27 0.28 0.27 0.27 0.26 0.24 0.20 0.21 0.24 0.26 0.24 0.21 0.18 0.19 0.21 0.23 0.25 0.29 0.31 0.33 0.36 0.39 0.43 0.51 0.59 0.62 0.57 0.52 0.54 0.55
0.11 0.20 0.24 0.20 0.21 0.15 0.11 0.13 0.18 0.26 0.22 0.17 0.10 0.15 0.19 0.21 0.22 0.21 0.20 0.20 0.19 0.20 0.17 0.16 0.14 0.14 0.14 0.14 0.13 0.14 0.17 0.21 0.22 0.20 0.20 0.20 0.23 0.29 0.38 0.44 0.46 0.44 0.44 0.43
0.08 0.14 0.19 0.16 0.08 0.05 0.06 0.09 0.16 0.26 0.18 0.13 0.10 0.14 0.14 0.14 0.14 0.14 0.14 0.15 0.15 0.15 0.12 0.12 0.13 0.13 0.12 0.12 0.12 0.13 0.15 0.16 0.13 0.12 0.12 0.12 0.14 0.18 0.22 0.27 0.30 0.34 0.38 0.39
0.07 0.11 0.19 0.20 0.13 0.08 0.09 0.09 0.11 0.24 0.38 0.23 0.15 0.15 0.15 0.14 0.13 0.12 0.13 0.14 0.13 0.10 0.08 0.08 0.08 0.08 0.08 0.11 0.15 0.17 0.14 0.11 0.09 0.09 0.08 0.09 0.10 0.10 0.12 0.16 0.19 0.21 0.25 0.29
0.12 0.08 0.10 0.12 0.08 0.14 0.17 0.08 0.12 0.43 0.53 0.17 0.06 0.10 0.11 0.10 0.11 0.14 0.16 0.14 0.10 0.09 0.06 0.04 0.03 0.03 0.05 0.11 0.14 0.15 0.12 0.11 0.14 0.14 0.13 0.14 0.13 0.12 0.12 0.13 0.15 0.16 0.16 0.17
0.10 0.08 0.04 0.04 0.07 0.18 0.19 0.11 0.14 0.28 0.19 0.14 0.05 0.04 0.06 0.06 0.09 0.13 0.14 0.11 0.07 0.05 0.03 0.02 0.03 0.04 0.06 0.09 0.12 0.13 0.14 0.17 0.19 0.18 0.15 0.14 0.13 0.14 0.15 0.14 0.13 0.12 0.10 0.09
0.11 0.10 0.06 0.06 0.05 0.11 0.13 0.07 0.07 0.08 0.05 0.05 0.03 0.03 0.03 0.07 0.12 0.15 0.13 0.09 0.06 0.04 0.02 0.02 0.02 0.02 0.03 0.07 0.15 0.20 0.23 0.24 0.21 0.18 0.16 0.15 0.16 0.16 0.17 0.14 0.11 0.09 0.10 0.10
0.06 0.08 0.13 0.08 0.03 0.09 0.11 0.06 0.05 0.04 0.02 0.04 0.05 0.03 0.05 0.12 0.18 0.20 0.14 0.07 0.04 0.02 0.01 0.01 0.01 0.01 0.04 0.11 0.24 0.37 0.43 0.38 0.31 0.27 0.22 0.20 0.20 0.20 0.20 0.19 0.18 0.17 0.17 0.18
0.04 0.08 0.17 0.11 0.07 0.17 0.11 0.05 0.03 0.01 0.02 0.04 0.04 0.04 0.07 0.10 0.14 0.14 0.08 0.03 0.02 0.01 0.01 0.01 0.01 0.03 0.06 0.14 0.27 0.37 0.44 0.48 0.43 0.39 0.37 0.33 0.34 0.36 0.38 0.40 0.39 0.37 0.37 0.36
0.03 0.10 0.20 0.15 0.11 0.06 0.03 0.02 0.02 0.02 0.02 0.03 0.04 0.02 0.03 0.04 0.08 0.09 0.05 0.03 0.02 0.01 0.01 0.01 0.01 0.03 0.07 0.14 0.22 0.32 0.41 0.47 0.51 0.57 0.61 0.60 0.59 0.62 0.66 0.71 0.72 0.68 0.65 0.63
0.03 0.08 0.21 0.17 0.12 0.03 0.01 0.00 0.01 0.02 0.04 0.01 0.02 0.02 0.01 0.02 0.06 0.08 0.07 0.05 0.04 0.03 0.03 0.03 0.03 0.05 0.10 0.17 0.28 0.45 0.56 0.62 0.64 0.71 0.76 0.73 0.72 0.73 0.73 0.74 0.74 0.70 0.64 0.61
0.07 0.12 0.18 0.16 0.12 0.02 0.01 0.01 0.00 0.03 0.04 0.01 0.02 0.02 0.03 0.04 0.05 0.04 0.06 0.08 0.09 0.09 0.10 0.12 0.14 0.18 0.25 0.34 0.48 0.70 0.82 0.77 0.71 0.70 0.66 0.60 0.56 0.51 0.48 0.46 0.43 0.41 0.37 0.34
0.02 0.05 0.06 0.06 0.07 0.03 0.01 0.01 0.01 0.02 0.01 0.01 0.02 0.03 0.04 0.03 0.03 0.03 0.04 0.06 0.11 0.14 0.15 0.18 0.24 0.30 0.36 0.40 0.46 0.56 0.59 0.54 0.48 0.43 0.36 0.30 0.28 0.25 0.23 0.21 0.20 0.18 0.16 0.14
0.02 0.03 0.03 0.03 0.04 0.02 0.01 0.01 0.01 0.01 0.01 0.01 0.03 0.04 0.04 0.03 0.02 0.03 0.03 0.04 0.05 0.08 0.08 0.09 0.11 0.12 0.15 0.17 0.19 0.20 0.19 0.16 0.14 0.12 0.10 0.08 0.08 0.08 0.07 0.07 0.06 0.05 0.04 0.03
0.03 0.02 0.03 0.02 0.02 0.02 0.01 0.01 0.01 0.01 0.01 0.01 0.03 0.03 0.03 0.04 0.03 0.03 0.03 0.03 0.04 0.04 0.04 0.04 0.04 0.04 0.04 0.04 0.05 0.04 0.04 0.04 0.03 0.03 0.03 0.03 0.03 0.03 0.04 0.04 0.04 0.04 0.04 0.04
0.03 0.03 0.04 0.03 0.02 0.02 0.01 0.01 0.01 0.01 0.01 0.01 0.01 0.01 0.02 0.02 0.03 0.04 0.04 0.04 0.04 0.04 0.04 0.04 0.04 0.04 0.04 0.04 0.04 0.04 0.04 0.04 0.04 0.04 0.05 0.05 0.05 0.05 0.05 0.06 0.07 0.08 0.07 0.08
0.02 0.03 0.04 0.04 0.01 0.01 0.00 0.00 0.00 0.01 0.01 0.01 0.01 0.01 0.02 0.02 0.02 0.03 0.03 0.03 0.03 0.04 0.04 0.05 0.05 0.05 0.05 0.05 0.06 0.06 0.06 0.07 0.07 0.07 0.07 0.09 0.09 0.10 0.10 0.11 0.11 0.13 0.13 0.14